| time (UTC) | temp F | wind direction | speed knots | gust knots | rain 1hr in | rain 24hr in | rain mn in | humidity % | barometer mb |
| 20260504050503 | 52 | 211 | 0.0 | 1.7 | 0.00 | 0.00 | 0.00 | 52 | 1018.9 |
| 20260504050004 | 51 | 211 | 0.0 | 1.7 | 0.00 | 0.00 | 0.00 | 52 | 1018.8 |
| 20260504045503 | 51 | 211 | 0.0 | 2.6 | 0.00 | 0.00 | 0.00 | 53 | 1018.7 |
| 20260504045010 | 51 | 210 | 0.9 | 2.6 | 0.00 | 0.00 | 0.00 | 52 | 1018.6 |
| 20260504044504 | 50 | 249 | 0.9 | 2.6 | 0.00 | 0.00 | 0.00 | 54 | 1018.5 |
| 20260504044004 | 50 | 306 | 0.0 | 2.6 | 0.00 | 0.00 | 0.00 | 54 | 1018.5 |
| 20260504043505 | 50 | 263 | 0.9 | 2.6 | 0.00 | 0.00 | 0.00 | 55 | 1018.4 |
| 20260504043004 | 50 | 29 | 0.0 | 1.7 | 0.00 | 0.00 | 0.00 | 56 | 1018.2 |
| 20260504042503 | 50 | 29 | 0.0 | 1.7 | 0.00 | 0.00 | 0.00 | 56 | 1018.2 |
| 20260504041504 | 49 | 28 | 0.0 | 1.7 | 0.00 | 0.00 | 0.00 | 57 | 1018.3 |
| 20260504041004 | 48 | 28 | 0.0 | 1.7 | 0.00 | 0.00 | 0.00 | 54 | 1018.3 |
| 20260504040505 | 48 | 28 | 0.0 | 0.9 | 0.00 | 0.00 | 0.00 | 57 | 1018.3 |
| 20260504040004 | 47 | 28 | 0.0 | 0.9 | 0.00 | 0.00 | 0.00 | 58 | 1018.4 |
| 20260504035504 | 47 | 28 | 0.0 | 2.6 | 0.00 | 0.00 | 0.00 | 61 | 1018.4 |
| 20260504034503 | 48 | 28 | 0.0 | 2.6 | 0.00 | 0.00 | 0.00 | 56 | 1018.4 |
| 20260504034004 | 48 | 115 | 0.0 | 0.0 | 0.00 | 0.00 | 0.00 | 55 | 1018.4 |
| 20260504033504 | 48 | 115 | 0.0 | 0.0 | 0.00 | 0.00 | 0.00 | 54 | 1018.4 |
| 20260504032503 | 48 | 115 | 0.0 | 0.0 | 0.00 | 0.00 | 0.00 | 55 | 1018.4 |
| 20260504032004 | 48 | 115 | 0.0 | 0.0 | 0.00 | 0.00 | 0.00 | 56 | 1018.4 |
| 20260504031504 | 48 | 115 | 0.0 | 0.0 | 0.00 | 0.00 | 0.00 | 55 | 1018.4 |
| 20260504031004 | 48 | 115 | 0.0 | 0.9 | 0.00 | 0.00 | 0.00 | 55 | 1018.3 |
| 20260504030504 | 48 | 115 | 0.0 | 0.9 | 0.00 | 0.00 | 0.00 | 55 | 1018.4 |
| 20260504030004 | 48 | 115 | 0.0 | 0.0 | 0.00 | 0.00 | 0.00 | 53 | 1018.4 |
| 20260504025504 | 48 | 115 | 0.0 | 0.0 | 0.00 | 0.00 | 0.00 | 52 | 1018.3 |
| 20260504025005 | 49 | 115 | 0.0 | 0.9 | 0.00 | 0.00 | 0.00 | 53 | 1018.3 |
| 20260504024504 | 49 | 115 | 0.0 | 1.7 | 0.00 | 0.00 | 0.00 | 52 | 1018.2 |
| 20260504024004 | 49 | 115 | 0.9 | 1.7 | 0.00 | 0.00 | 0.00 | 52 | 1018.2 |
| 20260504023504 | 49 | 115 | 0.0 | 1.7 | 0.00 | 0.00 | 0.00 | 52 | 1018.2 |
| 20260504023004 | 49 | 115 | 0.0 | 1.7 | 0.00 | 0.00 | 0.00 | 53 | 1018.4 |
| 20260504022504 | 49 | 115 | 0.0 | 1.7 | 0.00 | 0.00 | 0.00 | 53 | 1018.2 |
| 20260504022004 | 50 | 115 | 0.9 | 1.7 | 0.00 | 0.00 | 0.00 | 51 | 1018.1 |
| 20260504021504 | 51 | 115 | 0.0 | 0.9 | 0.00 | 0.00 | 0.00 | 47 | 1018.1 |
| 20260504021004 | 52 | 115 | 0.0 | 0.9 | 0.00 | 0.00 | 0.00 | 43 | 1018.1 |
| 20260504020503 | 52 | 115 | 0.0 | 0.9 | 0.00 | 0.00 | 0.00 | 45 | 1018.1 |
| 20260504020004 | 52 | 115 | 0.0 | 0.0 | 0.00 | 0.00 | 0.00 | 45 | 1018.1 |
| 20260504015504 | 52 | 115 | 0.0 | 0.0 | 0.00 | 0.00 | 0.00 | 46 | 1018.1 |
| 20260504014504 | 52 | 115 | 0.0 | 1.7 | 0.00 | 0.00 | 0.00 | 45 | 1018.0 |
| 20260504014004 | 52 | 115 | 0.9 | 1.7 | 0.00 | 0.00 | 0.00 | 45 | 1017.9 |
| 20260504013503 | 52 | 115 | 0.0 | 0.9 | 0.00 | 0.00 | 0.00 | 44 | 1017.8 |
| 20260504013004 | 52 | 115 | 0.0 | 0.0 | 0.00 | 0.00 | 0.00 | 45 | 1017.8 |
| 20260504012504 | 53 | 115 | 0.0 | 0.0 | 0.00 | 0.00 | 0.00 | 44 | 1017.8 |
| 20260504012005 | 53 | 115 | 0.0 | 0.0 | 0.00 | 0.00 | 0.00 | 44 | 1017.7 |
| 20260504011504 | 54 | 115 | 0.0 | 0.0 | 0.00 | 0.00 | 0.00 | 43 | 1017.6 |
| 20260504011006 | 54 | 115 | 0.0 | 0.0 | 0.00 | 0.00 | 0.00 | 40 | 1017.6 |
| 20260504010503 | 54 | 115 | 0.0 | 0.0 | 0.00 | 0.00 | 0.00 | 40 | 1017.4 |
| 20260504010005 | 55 | 115 | 0.0 | 0.0 | 0.00 | 0.00 | 0.00 | 38 | 1017.5 |
| 20260504005504 | 55 | 115 | 0.0 | 0.0 | 0.00 | 0.00 | 0.00 | 38 | 1017.5 |
| 20260504005004 | 55 | 115 | 0.0 | 0.0 | 0.00 | 0.00 | 0.00 | 40 | 1017.5 |
| 20260504004504 | 55 | 115 | 0.0 | 0.0 | 0.00 | 0.00 | 0.00 | 40 | 1017.4 |
| 20260504003004 | 56 | 115 | 0.0 | 0.9 | 0.00 | 0.00 | 0.00 | 39 | 1017.2 |
| 20260504002504 | 57 | 115 | 0.0 | 0.9 | 0.00 | 0.00 | 0.00 | 39 | 1017.2 |
| 20260504002004 | 58 | 115 | 0.0 | 0.9 | 0.00 | 0.00 | 0.00 | 38 | 1017.1 |
| 20260504001504 | 59 | 128 | 0.0 | 0.9 | 0.00 | 0.00 | 0.00 | 35 | 1017.2 |
| 20260504001005 | 59 | 139 | 0.0 | 0.9 | 0.00 | 0.00 | 0.00 | 35 | 1017.2 |
| 20260504000504 | 60 | 139 | 0.0 | 0.9 | 0.00 | 0.00 | 0.00 | 31 | 1017.3 |
| 20260504000004 | 60 | 139 | 0.0 | 1.7 | 0.00 | 0.00 | 0.00 | 31 | 1017.3 |
| 20260503235504 | 60 | 139 | 0.9 | 1.7 | 0.00 | 0.00 | 0.00 | 31 | 1017.2 |
| 20260503235004 | 60 | 252 | 0.9 | 2.6 | 0.00 | 0.00 | 0.00 | 30 | 1017.3 |
| 20260503234504 | 61 | 253 | 0.9 | 4.3 | 0.00 | 0.00 | 0.00 | 29 | 1017.3 |
| 20260503233504 | 62 | 332 | 1.7 | 7.0 | 0.00 | 0.00 | 0.00 | 28 | 1017.3 |
| 20260503233004 | 62 | 331 | 1.7 | 7.0 | 0.00 | 0.00 | 0.00 | 28 | 1017.3 |
| 20260503232504 | 62 | 207 | 1.7 | 7.0 | 0.00 | 0.00 | 0.00 | 29 | 1017.2 |
| 20260503231504 | 63 | 202 | 2.6 | 7.0 | 0.00 | 0.00 | 0.00 | 28 | 1017.2 |
| 20260503231004 | 63 | 225 | 2.6 | 7.0 | 0.00 | 0.00 | 0.00 | 27 | 1017.1 |
| 20260503230505 | 63 | 311 | 0.9 | 7.0 | 0.00 | 0.00 | 0.00 | 28 | 1017.1 |
| 20260503230006 | 63 | 237 | 0.9 | 10.4 | 0.00 | 0.00 | 0.00 | 28 | 1017.0 |
| 20260503225504 | 63 | 324 | 1.7 | 10.4 | 0.00 | 0.00 | 0.00 | 28 | 1016.9 |
| 20260503225004 | 63 | 231 | 1.7 | 10.4 | 0.00 | 0.00 | 0.00 | 27 | 1017.1 |
| 20260503224004 | 64 | 305 | 0.9 | 6.1 | 0.00 | 0.00 | 0.00 | 28 | 1017.1 |
| 20260503223504 | 65 | 355 | 0.9 | 5.2 | 0.00 | 0.00 | 0.00 | 29 | 1017.1 |
| 20260503223004 | 65 | 344 | 2.6 | 6.1 | 0.00 | 0.00 | 0.00 | 26 | 1017.1 |
| 20260503222004 | 64 | 5 | 1.7 | 5.2 | 0.00 | 0.00 | 0.00 | 29 | 1017.2 |
| 20260503221504 | 64 | 225 | 0.9 | 5.2 | 0.00 | 0.00 | 0.00 | 28 | 1017.2 |
| 20260503221004 | 64 | 222 | 0.9 | 7.8 | 0.00 | 0.00 | 0.00 | 27 | 1017.3 |
| 20260503220504 | 64 | 325 | 1.7 | 8.7 | 0.00 | 0.00 | 0.00 | 29 | 1017.4 |
| 20260503220004 | 64 | 186 | 2.6 | 8.7 | 0.00 | 0.00 | 0.00 | 26 | 1017.4 |
| 20260503215505 | 64 | 336 | 2.6 | 8.7 | 0.00 | 0.00 | 0.00 | 30 | 1017.5 |
| 20260503215004 | 64 | 304 | 1.7 | 7.0 | 0.00 | 0.00 | 0.00 | 26 | 1017.4 |
| 20260503214504 | 64 | 337 | 2.6 | 7.0 | 0.00 | 0.00 | 0.00 | 28 | 1017.5 |
| 20260503214004 | 63 | 210 | 1.7 | 6.1 | 0.00 | 0.00 | 0.00 | 24 | 1017.5 |
| 20260503213505 | 64 | 224 | 2.6 | 11.3 | 0.00 | 0.00 | 0.00 | 26 | 1017.5 |
| 20260503213005 | 64 | 332 | 2.6 | 11.3 | 0.00 | 0.00 | 0.00 | 26 | 1017.6 |
| 20260503212505 | 64 | 342 | 7.0 | 11.3 | 0.00 | 0.00 | 0.00 | 27 | 1017.6 |
| 20260503212004 | 64 | 263 | 2.6 | 7.0 | 0.00 | 0.00 | 0.00 | 25 | 1017.7 |
| 20260503211504 | 64 | 235 | 1.7 | 7.0 | 0.00 | 0.00 | 0.00 | 27 | 1017.6 |
| 20260503211005 | 64 | 347 | 3.5 | 12.2 | 0.00 | 0.00 | 0.00 | 26 | 1017.7 |
| 20260503210504 | 64 | 233 | 5.2 | 12.2 | 0.00 | 0.00 | 0.00 | 28 | 1017.8 |
| 20260503210005 | 64 | 230 | 5.2 | 11.3 | 0.00 | 0.00 | 0.00 | 30 | 1017.7 |
| 20260503205505 | 63 | 228 | 3.5 | 10.4 | 0.00 | 0.00 | 0.00 | 26 | 1017.7 |
| 20260503204505 | 64 | 294 | 2.6 | 10.4 | 0.00 | 0.00 | 0.00 | 28 | 1017.7 |
| 20260503204005 | 64 | 355 | 5.2 | 13.0 | 0.00 | 0.00 | 0.00 | 27 | 1017.8 |
| 20260503203504 | 64 | 8 | 4.3 | 13.0 | 0.00 | 0.00 | 0.00 | 30 | 1017.9 |
| 20260503203004 | 64 | 330 | 4.3 | 10.4 | 0.00 | 0.00 | 0.00 | 29 | 1018.0 |
| 20260503202504 | 63 | 336 | 1.7 | 10.4 | 0.00 | 0.00 | 0.00 | 31 | 1018.0 |
| 20260503202004 | 63 | 339 | 1.7 | 10.4 | 0.00 | 0.00 | 0.00 | 29 | 1018.1 |
| 20260503201004 | 63 | 211 | 5.2 | 13.0 | 0.00 | 0.00 | 0.00 | 29 | 1018.2 |
| 20260503200504 | 63 | 329 | 3.5 | 13.0 | 0.00 | 0.00 | 0.00 | 28 | 1018.3 |
| 20260503200004 | 63 | 218 | 5.2 | 12.2 | 0.00 | 0.00 | 0.00 | 29 | 1018.5 |
| 20260503195504 | 62 | 316 | 4.3 | 13.0 | 0.00 | 0.00 | 0.00 | 31 | 1018.4 |
| 20260503195005 | 62 | 241 | 6.1 | 13.0 | 0.00 | 0.00 | 0.00 | 32 | 1018.7 |
| 20260503194504 | 63 | 203 | 4.3 | 14.8 | 0.00 | 0.00 | 0.00 | 34 | 1018.6 |
| 20260503194004 | 62 | 351 | 4.3 | 14.8 | 0.00 | 0.00 | 0.00 | 32 | 1018.7 |
| 20260503193504 | 61 | 347 | 2.6 | 10.4 | 0.00 | 0.00 | 0.00 | 33 | 1018.7 |
| 20260503193005 | 61 | 334 | 2.6 | 10.4 | 0.00 | 0.00 | 0.00 | 30 | 1018.7 |
| 20260503192504 | 62 | 301 | 4.3 | 10.4 | 0.00 | 0.00 | 0.00 | 32 | 1018.9 |
| 20260503191504 | 61 | 206 | 5.2 | 11.3 | 0.00 | 0.00 | 0.00 | 31 | 1018.9 |
| 20260503191004 | 61 | 324 | 6.1 | 14.8 | 0.00 | 0.00 | 0.00 | 31 | 1018.9 |
| 20260503190504 | 61 | 215 | 3.5 | 17.4 | 0.00 | 0.00 | 0.00 | 33 | 1018.9 |
| 20260503185504 | 60 | 242 | 1.7 | 10.4 | 0.00 | 0.00 | 0.00 | 32 | 1019.5 |
| 20260503185004 | 60 | 200 | 3.5 | 11.3 | 0.00 | 0.00 | 0.00 | 34 | 1019.7 |
| 20260503184005 | 60 | 323 | 4.3 | 12.2 | 0.00 | 0.00 | 0.00 | 35 | 1019.8 |
| 20260503183505 | 59 | 294 | 3.5 | 12.2 | 0.00 | 0.00 | 0.00 | 33 | 1019.9 |
| 20260503183004 | 60 | 324 | 5.2 | 11.3 | 0.00 | 0.00 | 0.00 | 34 | 1019.9 |
| 20260503182504 | 59 | 239 | 4.3 | 10.4 | 0.00 | 0.00 | 0.00 | 35 | 1019.8 |
| 20260503182005 | 59 | 204 | 5.2 | 13.0 | 0.00 | 0.00 | 0.00 | 33 | 1019.9 |
| 20260503181505 | 59 | 248 | 5.2 | 13.0 | 0.00 | 0.00 | 0.00 | 35 | 1019.9 |
| 20260503181004 | 59 | 229 | 5.2 | 12.2 | 0.00 | 0.00 | 0.00 | 36 | 1019.9 |
| 20260503180504 | 58 | 339 | 6.1 | 12.2 | 0.00 | 0.00 | 0.00 | 36 | 1020.1 |
| 20260503175504 | 58 | 331 | 3.5 | 11.3 | 0.00 | 0.00 | 0.00 | 40 | 1020.2 |
| 20260503174504 | 58 | 338 | 3.5 | 8.7 | 0.00 | 0.00 | 0.00 | 38 | 1020.2 |
| 20260503174004 | 57 | 319 | 2.6 | 10.4 | 0.00 | 0.00 | 0.00 | 36 | 1020.3 |
| 20260503172504 | 56 | 340 | 1.7 | 10.4 | 0.00 | 0.00 | 0.00 | 37 | 1020.5 |
| 20260503172004 | 56 | 207 | 5.2 | 10.4 | 0.00 | 0.00 | 0.00 | 38 | 1020.6 |
| 20260503171504 | 57 | 224 | 5.2 | 10.4 | 0.00 | 0.00 | 0.00 | 38 | 1020.6 |
| 20260503171003 | 56 | 188 | 2.6 | 7.8 | 0.00 | 0.00 | 0.00 | 39 | 1020.7 |
| 20260503151004 | 51 | 320 | 6.1 | 13.0 | 0.00 | 0.00 | 0.00 | 44 | 1022.0 |
| 20260503150504 | 51 | 339 | 2.6 | 10.4 | 0.00 | 0.00 | 0.00 | 47 | 1021.9 |
| 20260503131005 | 45 | 345 | 5.2 | 10.4 | 0.00 | 0.00 | 0.00 | 50 | 1021.9 |
| 20260503130504 | 45 | 316 | 4.3 | 12.2 | 0.00 | 0.00 | 0.00 | 50 | 1021.8 |
| 20260503110504 | 41 | 325 | 0.9 | 4.3 | 0.00 | 0.00 | 0.00 | 59 | 1020.9 |
| 20260503090504 | 42 | 331 | 0.0 | 4.3 | 0.00 | 0.00 | 0.00 | 57 | 1018.8 |
| 20260503081504 | 43 | 349 | 0.0 | 6.1 | 0.00 | 0.00 | 0.00 | 58 | 1018.4 |
| 20260503081004 | 42 | 346 | 1.7 | 6.1 | 0.00 | 0.00 | 0.00 | 59 | 1018.3 |
| 20260503080504 | 42 | 313 | 1.7 | 6.1 | 0.00 | 0.00 | 0.00 | 60 | 1018.3 |
| 20260503072504 | 44 | 288 | 0.0 | 2.6 | 0.00 | 0.00 | 0.00 | 59 | 1018.1 |
| 20260503071504 | 44 | 289 | 0.9 | 7.0 | 0.00 | 0.00 | 0.00 | 57 | 1018.0 |
| 20260503071004 | 43 | 6 | 1.7 | 7.0 | 0.00 | 0.00 | 0.00 | 58 | 1018.0 |